Theta_e
354 350 349 345 326 322 316 319 328 326 327 335 336 334 330 330 327 318 340 344 346 347 351 357 362 364 363 367 365 364 364 363 365 366 365 363 361 363 364 362 361 361 360 360 360 360 359 357 357
352 351 349 337 320 310 315 325 324 328 332 334 336 335 332 325 334 335 336 343 346 347 350 355 363 364 363 365 366 366 362 362 365 365 365 364 362 364 362 361 361 360 360 359 359 358 358 357 356
350 352 335 328 321 313 317 326 328 332 336 335 334 337 333 326 335 335 340 342 344 344 349 355 365 364 363 365 365 365 365 363 364 365 362 363 365 363 361 362 360 360 359 360 358 358 357 356 355
345 344 338 323 318 323 324 327 331 331 335 336 334 327 334 337 337 338 341 342 341 343 353 361 364 363 364 365 364 364 363 364 364 365 363 362 361 361 361 360 360 359 359 360 359 358 357 356 356
347 338 324 320 320 326 329 332 334 331 333 333 333 326 328 333 338 340 339 340 341 346 354 357 366 365 365 365 363 364 364 364 365 366 362 362 362 362 361 360 361 360 360 360 360 359 358 357 356
336 329 316 313 318 324 329 332 333 333 335 334 331 331 334 332 333 335 337 338 346 350 353 357 364 365 366 363 363 364 362 362 366 366 363 362 363 365 364 360 360 360 359 359 359 358 358 356 354
329 322 313 315 318 321 327 334 330 332 332 331 336 329 335 331 336 338 337 341 348 348 352 356 359 360 363 366 363 362 362 362 363 362 362 362 361 361 362 363 362 359 359 359 358 358 359 358 356
330 322 314 320 317 318 330 332 334 333 332 340 339 328 329 336 343 343 343 344 347 351 354 355 356 355 355 357 363 362 361 361 362 361 360 359 358 359 360 363 364 359 358 358 357 360 362 361 360
341 321 312 319 319 320 329 329 335 340 335 336 337 337 340 343 345 342 341 342 342 347 350 351 352 352 352 354 357 361 361 361 361 360 359 354 352 353 354 360 363 358 359 359 361 361 365 360 354
330 321 320 327 326 324 328 328 331 333 332 333 335 340 342 343 342 339 339 338 339 342 345 347 349 351 351 354 352 353 354 353 354 348 339 341 345 350 355 358 364 361 361 361 364 362 361 361 348
330 321 327 326 328 329 327 328 332 331 327 332 332 336 340 341 340 340 340 340 338 340 343 344 348 351 348 351 351 352 351 350 351 338 344 346 352 352 352 351 352 353 349 347 350 350 351 348 348
322 328 328 325 327 327 326 327 326 330 332 337 338 339 339 338 338 339 339 340 340 338 340 344 347 349 346 349 349 350 349 349 351 343 346 346 348 350 353 351 352 349 348 349 351 351 350 348 347
322 326 326 327 326 325 328 325 326 332 337 339 339 339 337 337 338 340 341 341 342 337 339 343 346 348 348 346 346 345 346 347 351 346 346 349 342 347 350 354 349 349 349 339 340 349 344 347 345
324 327 324 327 326 326 323 322 327 334 337 336 337 336 337 337 337 339 340 340 340 338 339 343 346 349 347 347 343 343 350 345 352 353 352 349 352 349 352 351 347 346 347 343 345 345 339 341 344
324 319 326 325 325 325 328 321 320 336 337 334 335 335 336 337 339 338 340 339 340 341 341 343 344 349 349 348 351 350 349 345 344 353 353 353 352 352 350 348 351 351 349 347 350 346 342 340 343
319 318 312 322 325 326 324 314 325 333 334 332 334 335 336 337 339 340 341 341 342 342 343 345 346 348 350 349 350 350 346 349 347 351 351 352 353 355 351 352 350 348 354 354 349 347 346 343 344
312 307 308 312 322 322 317 313 324 330 331 331 333 334 335 336 338 341 343 342 342 342 344 345 345 346 350 349 351 349 349 348 351 353 350 350 354 355 355 351 352 352 350 349 349 347 349 341 337
305 306 307 309 316 319 315 311 323 327 329 328 330 333 334 334 336 340 342 344 342 344 344 345 346 345 348 350 351 347 346 350 349 349 349 352 354 357 356 352 351 350 347 348 350 344 339 333 332
311 310 308 312 317 315 315 312 322 327 330 331 330 330 333 334 337 339 340 341 342 345 344 346 346 347 347 350 348 347 344 347 345 347 352 354 356 357 356 355 350 353 347 349 347 343 342 332 336
309 308 309 312 315 314 315 312 324 324 323 327 327 327 331 334 335 338 338 340 341 344 345 345 348 348 347 350 347 348 348 348 347 347 354 356 357 358 357 353 351 352 351 349 347 346 342 336 332
306 306 307 307 311 312 312 311 317 324 324 325 326 328 334 333 334 336 337 338 341 344 344 347 347 350 349 351 351 349 350 348 345 345 350 355 356 359 356 355 353 353 352 350 349 349 344 335 334
302 310 311 310 307 300 310 302 309 318 319 320 324 328 331 333 335 337 337 337 341 345 346 348 349 355 352 353 351 348 345 344 344 343 346 352 355 357 358 356 354 354 350 348 349 352 346 342 329
307 311 310 310 306 301 304 300 308 316 315 318 323 330 332 335 335 336 337 339 341 346 347 347 350 355 353 354 352 351 347 346 344 344 345 348 351 356 360 358 356 354 355 350 348 350 348 349 340
313 309 304 307 303 295 300 298 299 309 313 319 325 330 333 329 333 335 339 340 340 346 349 351 351 354 353 354 354 351 348 344 344 343 343 349 352 354 356 358 357 356 353 352 351 352 351 347 348
308 301 292 290 293 292 298 298 300 310 317 318 324 328 328 327 329 336 337 337 340 344 348 352 353 353 355 352 352 354 350 348 344 343 344 348 351 352 354 357 355 357 354 355 353 352 354 350 347
303 301 290 285 288 292 298 294 301 311 314 319 324 328 327 330 334 336 337 338 340 342 347 353 352 352 355 355 351 351 356 352 348 351 345 349 349 353 354 357 358 355 356 356 353 354 353 353 348
302 297 300 291 294 290 294 298 304 308 311 312 318 323 329 333 336 336 337 339 339 342 346 350 353 352 354 355 354 351 352 356 348 347 352 346 350 350 355 356 359 357 357 355 356 355 352 354 351
304 304 295 296 287 287 294 296 298 302 306 310 312 317 325 334 333 338 338 339 340 342 346 348 354 353 354 354 355 354 352 354 356 348 347 354 348 350 352 356 355 357 358 357 355 355 355 353 353
301 300 300 296 294 288 289 295 306 305 308 310 313 317 323 328 336 338 339 341 341 342 345 347 351 353 354 355 354 355 354 352 356 354 348 352 353 353 352 357 355 356 356 359 355 353 353 354 351
306 302 301 296 292 294 293 296 310 310 311 313 314 316 321 327 335 340 341 341 341 341 343 345 348 353 355 356 355 355 356 355 352 356 354 348 354 353 358 359 357 357 357 357 358 355 356 352 352
Wind_Speed
10 9 5 2 3 1 4 1 2 5 6 3 14 12 11 7 1 4 14 12 15 12 7 11 14 15 16 15 15 15 14 14 14 15 15 15 15 13 13 13 13 13 11 12 11 11 10 9 8
10 11 2 2 1 3 5 2 10 9 15 18 20 14 8 3 9 16 13 16 15 12 8 8 13 15 15 15 14 15 15 15 14 13 13 14 13 12 13 13 12 11 11 10 10 9 8 8 7
13 9 1 2 3 7 4 5 15 9 18 16 10 11 5 6 15 14 13 18 14 12 11 10 14 14 15 15 15 13 14 14 14 13 14 13 12 11 12 12 11 11 10 10 9 8 7 7 6
5 1 3 2 8 7 5 10 7 16 20 15 17 10 9 13 9 11 19 17 13 11 15 14 15 16 16 16 14 13 13 13 12 13 13 12 12 11 10 11 11 10 10 9 9 8 8 7 6
2 2 3 2 5 8 13 14 9 4 13 19 12 10 10 10 20 23 19 15 12 11 14 13 15 15 16 15 13 12 13 13 11 11 12 11 10 10 10 10 10 10 9 9 9 9 7 6 5
2 2 2 4 9 11 14 15 18 15 18 23 18 13 5 20 20 20 18 14 11 16 14 13 16 15 15 15 13 12 13 12 10 10 10 9 8 9 9 9 9 8 8 8 9 8 7 6 3
3 3 6 7 8 11 13 16 11 22 19 17 19 11 13 18 17 17 16 12 14 16 13 11 10 13 15 13 13 13 12 10 10 9 7 6 6 8 8 8 7 7 7 8 7 6 5 6 5
6 4 10 6 4 7 14 10 11 16 11 21 15 10 17 20 20 16 15 11 15 16 14 11 9 7 6 7 12 12 11 10 9 9 7 4 3 5 8 6 5 6 7 6 4 2 2 3 2
15 6 8 11 11 4 4 9 10 21 25 9 5 21 23 24 22 15 9 7 14 14 14 12 10 8 7 7 8 10 11 10 9 8 7 6 3 1 6 5 5 5 6 4 1 4 3 1 1
6 4 13 8 4 13 12 12 12 23 22 22 27 21 23 23 19 18 13 12 12 16 15 13 11 10 9 8 6 6 6 4 4 5 6 4 3 4 5 6 5 5 4 4 1 5 7 5 2
15 10 7 12 13 19 20 7 7 17 20 30 30 29 26 22 19 16 14 13 12 17 14 14 13 12 9 8 5 3 3 3 3 6 5 4 2 2 0 2 1 1 1 1 3 2 4 5 3
16 10 10 14 7 7 11 13 16 8 18 28 32 28 27 25 20 19 15 13 17 18 17 17 15 13 8 7 7 6 5 5 5 6 4 5 2 3 3 2 4 2 2 1 3 3 4 3 5
17 13 17 16 5 2 16 18 13 14 27 27 27 28 25 22 20 18 14 14 14 15 18 19 16 13 10 10 7 5 6 5 7 6 6 5 2 2 4 3 2 3 3 1 1 1 2 2 4
16 20 16 5 18 14 8 9 10 26 29 28 29 27 24 21 23 19 16 18 14 14 17 18 17 12 14 10 7 5 5 5 9 8 7 6 5 4 4 5 4 4 3 3 3 3 2 4 5
19 13 16 12 27 11 17 2 9 31 29 26 26 26 25 24 24 23 21 19 17 15 14 19 17 13 14 8 6 4 1 5 5 7 8 8 6 4 4 5 5 5 4 5 2 1 2 2 3
19 18 13 25 22 16 18 17 15 26 30 28 27 25 24 25 27 23 22 21 19 15 18 19 16 12 8 8 5 2 1 2 5 7 6 7 6 5 5 3 4 3 0 2 3 3 2 3 3
12 12 11 12 18 12 8 9 19 20 24 22 20 20 22 23 24 25 24 22 20 15 21 19 16 13 9 7 6 4 2 2 2 6 6 7 7 5 4 4 3 4 3 1 2 2 2 1 0
8 8 9 13 15 11 9 7 23 21 24 19 0 13 18 18 22 23 25 22 20 16 21 18 14 14 11 7 5 3 3 3 3 4 6 8 6 7 5 4 4 4 2 2 2 2 2 2 2
10 17 15 13 11 8 16 8 27 19 19 16 6 13 18 19 15 17 15 16 18 17 20 16 17 15 11 7 6 5 5 3 3 2 8 8 7 7 6 3 4 3 4 3 2 2 3 2 3
18 21 20 12 17 15 16 12 24 27 27 30 29 25 21 21 17 19 17 17 20 17 18 16 16 18 14 10 8 4 4 3 4 3 6 8 7 7 6 6 4 4 3 3 3 2 1 0 2
23 19 19 13 15 16 11 21 21 20 22 11 20 22 18 26 24 22 21 20 19 19 20 17 16 18 15 12 8 4 2 3 3 3 4 6 8 8 7 7 5 4 5 4 4 3 4 2 2
21 18 19 21 14 8 13 10 11 21 16 18 23 23 25 24 24 23 23 20 21 20 19 18 17 16 15 13 12 12 10 8 4 5 4 6 8 8 8 7 6 6 4 5 5 4 3 3 3
16 16 21 22 15 7 18 3 16 22 13 20 24 29 21 18 16 22 26 23 19 19 19 18 18 16 16 16 14 11 9 4 4 4 7 7 7 8 9 9 7 6 5 6 6 4 4 2 3
17 12 9 15 12 13 16 6 7 16 17 26 30 28 30 25 28 18 25 22 20 20 19 17 18 17 17 16 13 13 11 8 5 5 5 5 7 7 7 9 8 7 6 6 6 5 5 5 3
17 12 8 10 14 12 8 8 9 7 17 16 25 33 31 22 22 20 25 24 20 22 22 20 21 19 18 19 17 11 11 12 9 7 5 6 6 6 7 7 8 6 6 6 6 6 6 6 4
22 20 6 10 10 10 8 11 10 9 8 9 20 35 28 23 24 28 29 26 24 24 24 23 23 22 21 20 19 16 8 8 9 6 6 5 7 8 10 9 10 9 9 7 7 5 5 6 5
20 21 12 2 6 4 5 11 11 18 15 7 11 18 26 31 29 29 29 27 25 22 25 25 23 22 21 19 16 15 14 9 13 13 5 7 6 8 12 12 11 11 11 9 7 7 7 6 6
18 12 12 9 10 10 10 16 18 15 21 13 10 10 21 31 29 27 27 26 25 24 22 23 22 22 21 19 16 15 18 17 11 9 11 7 8 7 9 13 14 13 13 12 10 5 6 7 6
13 13 15 6 6 7 5 11 18 21 21 15 15 11 28 24 29 29 26 25 26 23 21 23 20 21 19 19 19 18 16 16 13 11 11 10 7 7 7 12 13 13 13 10 10 8 7 8 7
16 16 18 12 14 6 5 12 8 12 26 19 18 10 15 21 25 29 28 25 22 23 21 23 21 22 21 19 18 17 16 14 16 14 10 14 9 9 7 10 12 11 13 13 12 12 11 10 9
Wind_Direction
157 175 218 174 245 227 287 291 240 207 207 50 113 119 122 20 110 153 135 141 133 131 136 125 116 115 118 115 110 110 105 99 94 94 97 94 93 96 99 98 102 97 101 104 102 101 97 95 87
169 172 203 256 215 29 287 224 256 237 121 119 103 98 67 80 70 120 123 139 132 134 142 126 120 115 122 118 114 108 109 103 100 96 95 97 94 94 101 100 97 100 100 100 104 104 102 102 103
183 170 219 221 150 195 232 193 227 134 139 112 92 52 71 85 116 127 129 134 138 147 137 138 124 124 126 120 116 120 114 110 102 101 94 93 99 98 100 99 98 101 98 101 104 108 113 110 109
199 70 263 256 262 264 254 195 229 120 94 85 115 72 62 120 134 129 143 141 146 156 131 134 133 131 133 119 122 118 114 108 105 102 101 96 99 94 95 100 102 102 102 99 106 107 107 117 128
156 207 265 241 270 277 243 171 88 117 92 106 94 101 107 70 111 130 141 153 156 133 134 135 137 138 126 124 127 121 116 111 116 110 106 102 94 102 101 103 103 106 103 102 99 91 100 119 151
215 317 2 307 308 232 260 153 141 118 116 104 104 107 92 127 126 140 151 160 145 131 132 136 138 136 128 131 132 125 116 113 114 107 104 108 109 99 105 106 104 102 99 86 78 71 69 65 46
88 65 325 288 283 282 187 134 145 129 132 124 130 110 129 134 141 144 155 168 132 132 129 129 137 138 137 135 138 126 122 121 115 104 101 106 110 110 106 104 104 99 86 76 72 77 74 65 51
120 71 338 289 316 27 309 103 127 122 130 136 131 150 154 153 147 153 166 159 140 129 132 139 139 129 134 140 141 135 133 127 120 123 121 94 112 127 123 117 125 106 86 75 54 44 123 123 129
194 108 229 262 277 248 306 116 105 121 131 153 203 136 143 150 151 158 153 169 137 139 142 142 145 151 150 135 149 150 148 145 159 137 104 63 344 290 143 190 156 137 109 100 33 316 313 146 147
183 206 193 232 45 310 299 284 144 113 110 101 111 124 144 153 150 159 170 161 146 149 149 151 153 159 155 153 145 159 171 170 187 129 133 130 257 263 246 165 173 177 145 169 193 340 323 308 262
208 226 168 239 235 201 265 29 32 112 124 139 142 148 156 155 158 166 168 170 160 156 157 158 159 160 169 141 166 176 183 177 158 155 178 146 228 255 25 163 133 233 25 319 82 340 293 271 272
229 208 258 266 239 267 148 93 274 210 154 147 146 149 157 157 167 168 170 178 161 164 165 161 164 169 159 157 176 185 188 181 172 191 171 132 208 176 185 177 197 159 214 44 10 321 320 285 280
227 186 196 245 198 32 148 155 193 160 137 142 146 152 158 164 158 168 174 179 182 173 169 165 165 165 159 165 189 187 199 174 180 160 192 148 164 258 176 178 170 166 206 221 198 316 292 338 315
246 192 210 235 300 158 199 178 131 139 142 146 151 158 163 170 166 172 177 183 192 185 171 166 168 156 160 173 188 187 218 172 159 169 173 157 162 223 133 143 179 170 210 218 178 159 116 322 0
254 242 203 221 227 234 159 250 233 143 144 151 158 163 171 177 171 177 181 190 191 185 163 164 170 163 162 161 157 179 177 143 152 166 161 167 162 198 141 148 169 194 190 228 173 220 87 333 273
248 256 223 220 224 242 186 210 173 155 149 157 165 170 177 181 179 181 184 191 191 182 159 162 168 162 152 146 147 162 210 303 127 150 163 156 157 160 122 153 168 182 207 168 141 231 158 238 260
251 246 240 249 230 208 223 131 165 155 145 150 167 181 179 185 187 181 188 188 195 168 156 162 165 162 149 149 149 176 242 261 214 174 160 161 151 172 142 147 201 188 145 129 160 209 228 95 201
225 237 248 243 247 198 214 195 160 172 144 126 26 203 188 191 179 179 188 191 179 153 160 160 164 163 157 152 144 174 227 270 249 149 172 163 161 172 167 144 165 147 155 90 194 112 39 140 88
230 243 235 238 226 222 209 216 166 127 120 135 153 271 203 191 185 181 173 167 160 158 163 162 158 165 162 160 163 177 204 223 226 203 178 168 165 168 161 143 165 154 153 191 168 86 60 2 75
235 238 244 230 242 215 210 218 147 145 148 166 175 220 227 183 189 179 182 174 170 168 163 168 155 164 170 170 177 164 180 197 198 194 173 171 166 166 155 163 181 183 165 158 164 130 38 342 113
232 233 242 243 243 238 208 209 140 177 172 179 164 194 229 187 188 181 185 184 172 172 173 170 166 165 169 168 167 166 186 199 182 207 157 199 168 167 165 182 191 193 158 175 181 169 158 167 17
224 229 248 252 256 252 229 205 176 177 189 171 171 190 196 192 191 182 183 184 179 179 176 170 169 164 172 164 175 190 201 208 194 179 176 178 176 172 171 182 190 183 174 181 185 187 179 138 159
228 214 233 248 259 272 275 203 205 175 182 185 186 193 183 204 186 185 186 186 178 171 179 179 174 170 172 173 181 189 197 184 183 181 176 179 185 178 179 182 186 187 171 191 192 193 189 164 144
221 228 238 242 250 256 252 193 261 194 182 187 190 177 181 178 189 198 188 184 179 173 173 177 179 177 175 180 178 190 192 190 192 189 190 178 189 192 188 181 179 185 172 172 194 199 188 183 152
219 200 226 224 229 235 250 253 213 211 188 184 163 178 181 195 179 186 187 184 179 171 177 177 179 180 181 188 193 182 190 190 195 195 189 175 178 186 197 173 185 180 179 182 180 189 195 184 175
210 210 176 199 205 233 249 246 251 253 228 220 172 178 182 182 187 185 181 182 184 177 177 178 182 185 183 186 195 197 185 199 203 195 201 189 181 184 189 189 181 180 182 185 185 186 191 182 184
204 215 209 223 213 162 214 267 279 258 259 225 188 158 180 185 180 179 181 180 185 180 179 181 182 187 188 188 190 198 196 198 207 213 198 198 186 188 188 192 180 186 185 190 183 195 197 181 186
211 170 209 214 199 218 231 218 232 230 240 225 208 189 173 178 181 177 178 181 184 185 180 178 179 186 188 189 191 197 202 204 204 200 212 213 207 195 182 192 191 185 185 191 193 184 194 193 192
198 193 200 186 192 180 221 242 226 222 219 209 215 207 188 172 172 174 177 182 183 182 176 179 179 183 186 190 195 200 205 206 204 200 208 217 205 204 180 185 192 189 189 186 193 195 189 192 190
217 209 196 201 228 232 223 264 333 243 202 199 201 191 172 178 167 169 175 179 177 180 176 180 181 183 188 191 194 202 202 203 207 210 202 209 215 207 191 183 182 185 192 194 192 200 204 200 194